sat.trackr.live / text

‹ back to catalog

2025-313X

NORAD 67269 · 2025-313X

PAYLOAD ACTIVE UNKNOWN

§ Identity

Operator
Country
TBD
Launch date
2025-12-28
Launch site
VOSTO
Launch vehicle
Mass (kg)
RCS (m²)

External: N2YO · Heavens-Above · Gunter

§ Orbital elements

Epoch: 2026-09-20T02:46:29.751168Z

Period
94.31 min
Inclination
97.3889°
Eccentricity
0.0013623
Mean motion
15.26934391 rev/d
Perigee alt
475.6 km
Apogee alt
494.3 km
Semi-major
6,863.1 km
B*
3.2100e-4
RAAN
337.0282°
Arg perigee
32.3997°
Mean anomaly
327.8075°
Rev number
4,044

§ Raw data

2025-313X1 67269U 25313X   26263.11562212  .00008440  00000+0  32100-3 0  99972 67269  97.3889 337.0282 0013623  32.3997 327.8075 15.26934391 40446

JSON: /api/v1/satellites/67269 · /tle

For live sub-satellite position, see the globe view (requires WebGL).

§ Visibility from observer

Set your observer location to see the next 7 days of passes ≥ 10°. The values pass through the URL so the page stays shareable.

No JS? Fill the form by hand. The geolocation button needs JavaScript.